| time (UTC) | temp F | wind direction | speed MPH | gust MPH | rain 1hr in | rain 24hr in | rain mn in | humidity % | barometer mb |
| 20260507114047 | 24 | 275 | 2.0 | 4.0 | 0.00 | 0.00 | 0.00 | 80 | 1010.7 |
| 20260507113544 | 24 | 280 | 2.0 | 4.0 | 0.00 | 0.00 | 0.00 | 81 | 1010.6 |
| 20260507113058 | 23 | 286 | 0.0 | 4.0 | 0.00 | 0.00 | 0.00 | 81 | 1010.6 |
| 20260507112545 | 23 | 0 | 0.0 | 4.0 | 0.00 | 0.00 | 0.00 | 80 | 1010.6 |
| 20260507112045 | 23 | 0 | 2.0 | 4.0 | 0.00 | 0.00 | 0.00 | 79 | 1010.5 |
| 20260507111557 | 24 | 262 | 0.0 | 3.0 | 0.00 | 0.00 | 0.00 | 78 | 1010.5 |
| 20260507111044 | 24 | 0 | 0.0 | 0.0 | 0.00 | 0.00 | 0.00 | 78 | 1010.5 |
| 20260507110544 | 24 | 0 | 0.0 | 0.0 | 0.00 | 0.00 | 0.00 | 78 | 1010.4 |
| 20260507110054 | 25 | 0 | 0.0 | 0.0 | 0.00 | 0.00 | 0.00 | 78 | 1010.5 |
| 20260507105544 | 25 | 0 | 0.0 | 1.0 | 0.00 | 0.00 | 0.00 | 78 | 1010.5 |
| 20260507105047 | 25 | 0 | 0.0 | 1.0 | 0.00 | 0.00 | 0.00 | 77 | 1010.5 |
| 20260507104559 | 25 | 289 | 0.0 | 1.0 | 0.00 | 0.00 | 0.00 | 77 | 1010.4 |
| 20260507104047 | 25 | 0 | 0.0 | 0.0 | 0.00 | 0.00 | 0.00 | 78 | 1010.4 |
| 20260507103551 | 25 | 0 | 0.0 | 3.0 | 0.00 | 0.00 | 0.00 | 78 | 1010.4 |
| 20260507103051 | 25 | 0 | 0.0 | 3.0 | 0.00 | 0.00 | 0.00 | 78 | 1010.3 |
| 20260507102548 | 25 | 289 | 1.0 | 3.0 | 0.00 | 0.00 | 0.00 | 77 | 1010.4 |
| 20260507102050 | 25 | 261 | 2.0 | 3.0 | 0.00 | 0.00 | 0.00 | 76 | 1010.5 |
| 20260507101553 | 26 | 292 | 0.0 | 5.0 | 0.00 | 0.00 | 0.00 | 77 | 1010.4 |
| 20260507101048 | 26 | 0 | 0.0 | 6.0 | 0.00 | 0.00 | 0.00 | 78 | 1010.3 |
| 20260507100544 | 25 | 281 | 3.0 | 6.0 | 0.00 | 0.00 | 0.00 | 80 | 1010.2 |
| 20260507100100 | 24 | 285 | 2.0 | 4.0 | 0.00 | 0.00 | 0.00 | 78 | 1010.3 |
| 20260507095545 | 24 | 273 | 2.0 | 4.0 | 0.00 | 0.00 | 0.00 | 77 | 1010.2 |
| 20260507095047 | 25 | 256 | 2.0 | 6.0 | 0.00 | 0.00 | 0.00 | 75 | 1010.1 |
| 20260507094551 | 26 | 267 | 2.0 | 6.0 | 0.00 | 0.00 | 0.00 | 75 | 1010.1 |
| 20260507094047 | 26 | 286 | 2.0 | 4.0 | 0.00 | 0.00 | 0.00 | 74 | 1010.1 |
| 20260507093547 | 26 | 294 | 1.0 | 4.0 | 0.00 | 0.00 | 0.00 | 76 | 1010.0 |
| 20260507093054 | 26 | 288 | 1.0 | 4.0 | 0.00 | 0.00 | 0.00 | 76 | 1010.0 |
| 20260507092547 | 26 | 283 | 2.0 | 4.0 | 0.00 | 0.00 | 0.00 | 76 | 1009.8 |
| 20260507092048 | 26 | 0 | 0.0 | 4.0 | 0.00 | 0.00 | 0.00 | 77 | 1009.8 |
| 20260507091600 | 25 | 291 | 2.0 | 4.0 | 0.00 | 0.00 | 0.00 | 77 | 1009.8 |
| 20260507091048 | 25 | 269 | 0.0 | 0.0 | 0.00 | 0.00 | 0.00 | 77 | 1009.8 |
| 20260507090548 | 25 | 0 | 0.0 | 0.0 | 0.00 | 0.00 | 0.00 | 77 | 1009.9 |
| 20260507085547 | 26 | 0 | 0.0 | 3.0 | 0.00 | 0.00 | 0.00 | 75 | 1010.0 |
| 20260507085045 | 26 | 0 | 0.0 | 3.0 | 0.00 | 0.00 | 0.00 | 75 | 1009.9 |
| 20260507084555 | 26 | 270 | 1.0 | 3.0 | 0.00 | 0.00 | 0.00 | 76 | 1010.0 |
| 20260507084045 | 26 | 0 | 1.0 | 3.0 | 0.00 | 0.00 | 0.00 | 75 | 1010.0 |
| 20260507083547 | 26 | 271 | 1.0 | 3.0 | 0.00 | 0.00 | 0.00 | 75 | 1010.0 |
| 20260507083057 | 26 | 0 | 2.0 | 3.0 | 0.00 | 0.00 | 0.00 | 73 | 1010.0 |
| 20260507082544 | 27 | 279 | 1.0 | 3.0 | 0.00 | 0.00 | 0.00 | 72 | 1010.1 |
| 20260507082044 | 28 | 269 | 1.0 | 4.0 | 0.00 | 0.00 | 0.00 | 73 | 1010.1 |
| 20260507081556 | 27 | 0 | 1.0 | 4.0 | 0.00 | 0.00 | 0.00 | 74 | 1010.1 |
| 20260507081044 | 27 | 270 | 2.0 | 4.0 | 0.00 | 0.00 | 0.00 | 75 | 1010.2 |
| 20260507080544 | 27 | 265 | 2.0 | 4.0 | 0.00 | 0.00 | 0.00 | 74 | 1010.1 |
| 20260507075548 | 28 | 279 | 1.0 | 4.0 | 0.00 | 0.00 | 0.00 | 72 | 1010.2 |
| 20260507075045 | 28 | 277 | 2.0 | 4.0 | 0.00 | 0.00 | 0.00 | 72 | 1010.3 |
| 20260507074550 | 28 | 289 | 0.0 | 3.0 | 0.00 | 0.00 | 0.00 | 72 | 1010.3 |
| 20260507074047 | 28 | 0 | 1.0 | 6.0 | 0.00 | 0.00 | 0.00 | 72 | 1010.2 |
| 20260507073548 | 28 | 271 | 1.0 | 6.0 | 0.00 | 0.00 | 0.00 | 71 | 1010.3 |
| 20260507073059 | 28 | 267 | 2.0 | 6.0 | 0.00 | 0.00 | 0.00 | 72 | 1010.3 |
| 20260507072545 | 28 | 283 | 2.0 | 4.0 | 0.00 | 0.00 | 0.00 | 70 | 1010.5 |
| 20260507072045 | 29 | 273 | 1.0 | 4.0 | 0.00 | 0.00 | 0.00 | 69 | 1010.6 |
| 20260507071604 | 29 | 0 | 0.0 | 0.0 | 0.00 | 0.00 | 0.00 | 70 | 1010.5 |
| 20260507071044 | 29 | 0 | 0.0 | 0.0 | 0.00 | 0.00 | 0.00 | 70 | 1010.6 |
| 20260507070544 | 29 | 0 | 0.0 | 3.0 | 0.00 | 0.00 | 0.00 | 70 | 1010.7 |
| 20260507065547 | 29 | 269 | 1.0 | 3.0 | 0.00 | 0.00 | 0.00 | 70 | 1010.8 |
| 20260507065044 | 29 | 0 | 0.0 | 3.0 | 0.00 | 0.00 | 0.00 | 71 | 1010.8 |
| 20260507064634 | 28 | 265 | 1.0 | 3.0 | 0.00 | 0.00 | 0.00 | 70 | 1010.8 |
| 20260507064044 | 29 | 265 | 2.0 | 3.0 | 0.00 | 0.00 | 0.00 | 68 | 1010.7 |
| 20260507063544 | 29 | 0 | 0.0 | 3.0 | 0.00 | 0.00 | 0.00 | 69 | 1010.8 |
| 20260507063109 | 30 | 255 | 1.0 | 3.0 | 0.00 | 0.00 | 0.00 | 67 | 1010.8 |
| 20260507062548 | 30 | 0 | 1.0 | 3.0 | 0.00 | 0.00 | 0.00 | 68 | 1010.8 |
| 20260507062044 | 30 | 275 | 1.0 | 3.0 | 0.00 | 0.00 | 0.00 | 67 | 1010.8 |
| 20260507061555 | 30 | 0 | 1.0 | 3.0 | 0.00 | 0.00 | 0.00 | 68 | 1010.8 |
| 20260507061048 | 30 | 280 | 1.0 | 3.0 | 0.00 | 0.00 | 0.00 | 68 | 1010.8 |
| 20260507060549 | 30 | 305 | 2.0 | 3.0 | 0.00 | 0.00 | 0.00 | 66 | 1010.8 |
| 20260507060111 | 31 | 284 | 1.0 | 4.0 | 0.00 | 0.00 | 0.00 | 65 | 1010.8 |
| 20260507055547 | 31 | 276 | 2.0 | 4.0 | 0.00 | 0.00 | 0.00 | 64 | 1010.9 |
| 20260507055045 | 33 | 281 | 2.0 | 6.0 | 0.00 | 0.00 | 0.00 | 62 | 1010.7 |
| 20260507054602 | 33 | 288 | 3.0 | 6.0 | 0.00 | 0.00 | 0.00 | 62 | 1010.8 |
| 20260507054045 | 33 | 283 | 3.0 | 6.0 | 0.00 | 0.00 | 0.00 | 62 | 1010.7 |
| 20260507053545 | 33 | 287 | 4.0 | 6.0 | 0.00 | 0.00 | 0.00 | 63 | 1010.7 |
| 20260507053101 | 34 | 267 | 3.0 | 7.0 | 0.00 | 0.00 | 0.00 | 60 | 1010.8 |
| 20260507052547 | 35 | 282 | 3.0 | 7.0 | 0.00 | 0.00 | 0.00 | 59 | 1010.7 |
| 20260507052044 | 34 | 301 | 4.0 | 7.0 | 0.00 | 0.00 | 0.00 | 61 | 1010.8 |
| 20260507051605 | 33 | 302 | 1.0 | 3.0 | 0.00 | 0.00 | 0.00 | 63 | 1010.8 |
| 20260507051045 | 32 | 291 | 1.0 | 3.0 | 0.00 | 0.00 | 0.00 | 63 | 1010.8 |
| 20260507050544 | 33 | 269 | 1.0 | 4.0 | 0.00 | 0.00 | 0.00 | 61 | 1010.7 |
| 20260507050053 | 34 | 281 | 1.0 | 6.0 | 0.00 | 0.00 | 0.00 | 60 | 1010.9 |
| 20260507045548 | 34 | 280 | 2.0 | 6.0 | 0.00 | 0.00 | 0.00 | 61 | 1011.1 |
| 20260507045048 | 33 | 288 | 3.0 | 6.0 | 0.00 | 0.00 | 0.00 | 64 | 1011.2 |
| 20260507044556 | 33 | 273 | 4.0 | 6.0 | 0.00 | 0.00 | 0.00 | 62 | 1011.2 |
| 20260507044051 | 34 | 272 | 2.0 | 7.0 | 0.00 | 0.00 | 0.00 | 60 | 1011.2 |
| 20260507043545 | 35 | 278 | 3.0 | 7.0 | 0.00 | 0.00 | 0.00 | 58 | 1011.4 |
| 20260507043058 | 36 | 271 | 5.0 | 7.0 | 0.00 | 0.00 | 0.00 | 56 | 1011.5 |
| 20260507042545 | 36 | 291 | 3.0 | 6.0 | 0.00 | 0.00 | 0.00 | 57 | 1011.5 |
| 20260507042044 | 36 | 281 | 3.0 | 7.0 | 0.00 | 0.00 | 0.00 | 58 | 1011.6 |
| 20260507041554 | 36 | 277 | 3.0 | 7.0 | 0.00 | 0.00 | 0.00 | 57 | 1011.5 |
| 20260507041047 | 38 | 235 | 2.0 | 7.0 | 0.00 | 0.00 | 0.00 | 54 | 1011.5 |
| 20260507040545 | 37 | 295 | 4.0 | 7.0 | 0.00 | 0.00 | 0.00 | 55 | 1011.5 |
| 20260507040057 | 37 | 286 | 2.0 | 4.0 | 0.00 | 0.00 | 0.00 | 56 | 1011.6 |
| 20260507035547 | 37 | 288 | 3.0 | 4.0 | 0.00 | 0.00 | 0.00 | 56 | 1011.6 |
| 20260507035045 | 37 | 292 | 2.0 | 5.0 | 0.00 | 0.00 | 0.00 | 56 | 1011.6 |
| 20260507034552 | 38 | 257 | 2.0 | 5.0 | 0.00 | 0.00 | 0.00 | 55 | 1011.7 |
| 20260507034048 | 38 | 269 | 2.0 | 5.0 | 0.00 | 0.00 | 0.00 | 54 | 1011.8 |
| 20260507033547 | 39 | 273 | 2.0 | 6.0 | 0.00 | 0.00 | 0.00 | 52 | 1011.8 |
| 20260507033051 | 41 | 276 | 3.0 | 6.0 | 0.00 | 0.00 | 0.00 | 50 | 1011.8 |
| 20260507032545 | 41 | 283 | 2.0 | 5.0 | 0.00 | 0.00 | 0.00 | 49 | 1011.9 |
| 20260507032044 | 41 | 286 | 2.0 | 6.0 | 0.00 | 0.00 | 0.00 | 50 | 1011.9 |
| 20260507031553 | 40 | 279 | 3.0 | 6.0 | 0.00 | 0.00 | 0.00 | 53 | 1012.1 |
| 20260507031049 | 40 | 284 | 3.0 | 6.0 | 0.00 | 0.00 | 0.00 | 52 | 1012.2 |
| 20260507030548 | 42 | 0 | 0.0 | 7.0 | 0.00 | 0.00 | 0.00 | 49 | 1012.2 |
| 20260507030053 | 41 | 293 | 2.0 | 7.0 | 0.00 | 0.00 | 0.00 | 50 | 1012.2 |
| 20260507025544 | 40 | 284 | 4.0 | 7.0 | 0.00 | 0.00 | 0.00 | 53 | 1012.3 |
| 20260507025044 | 39 | 265 | 3.0 | 5.0 | 0.00 | 0.00 | 0.00 | 54 | 1012.2 |
| 20260507024550 | 41 | 259 | 2.0 | 4.0 | 0.00 | 0.00 | 0.00 | 51 | 1012.2 |
| 20260507024047 | 42 | 273 | 3.0 | 4.0 | 0.00 | 0.00 | 0.00 | 48 | 1012.2 |
| 20260507023548 | 43 | 288 | 2.0 | 4.0 | 0.00 | 0.00 | 0.00 | 47 | 1012.2 |
| 20260507023056 | 44 | 285 | 2.0 | 4.0 | 0.00 | 0.00 | 0.00 | 45 | 1012.3 |
| 20260507022547 | 46 | 301 | 1.0 | 2.0 | 0.00 | 0.00 | 0.00 | 42 | 1012.3 |
| 20260507022045 | 46 | 0 | 0.0 | 3.0 | 0.00 | 0.00 | 0.00 | 41 | 1012.2 |
| 20260507021550 | 47 | 0 | 1.0 | 3.0 | 0.00 | 0.00 | 0.00 | 42 | 1012.3 |
| 20260507021044 | 47 | 0 | 0.0 | 0.0 | 0.00 | 0.00 | 0.00 | 41 | 1012.3 |
| 20260507020545 | 48 | 0 | 0.0 | 0.0 | 0.00 | 0.00 | 0.00 | 40 | 1012.3 |
| 20260507020106 | 51 | 0 | 0.0 | 0.0 | 0.00 | 0.00 | 0.00 | 37 | 1012.3 |
| 20260507015548 | 52 | 0 | 0.0 | 0.0 | 0.00 | 0.00 | 0.00 | 35 | 1012.3 |
| 20260507015048 | 52 | 0 | 0.0 | 0.0 | 0.00 | 0.00 | 0.00 | 34 | 1012.3 |
| 20260507014558 | 53 | 0 | 0.0 | 0.0 | 0.00 | 0.00 | 0.00 | 32 | 1012.3 |
| 20260507014047 | 53 | 0 | 0.0 | 0.0 | 0.00 | 0.00 | 0.00 | 31 | 1012.3 |
| 20260507013548 | 54 | 0 | 0.0 | 0.0 | 0.00 | 0.00 | 0.00 | 30 | 1012.3 |
| 20260507013050 | 55 | 0 | 0.0 | 0.0 | 0.00 | 0.00 | 0.00 | 29 | 1012.3 |
| 20260507012548 | 55 | 0 | 0.0 | 1.0 | 0.00 | 0.00 | 0.00 | 28 | 1012.3 |
| 20260507012048 | 55 | 0 | 0.0 | 1.0 | 0.00 | 0.00 | 0.00 | 28 | 1012.3 |
| 20260507011550 | 56 | 0 | 0.0 | 1.0 | 0.00 | 0.00 | 0.00 | 26 | 1012.2 |
| 20260507011047 | 56 | 0 | 0.0 | 3.0 | 0.00 | 0.00 | 0.00 | 27 | 1012.3 |
| 20260507010547 | 56 | 0 | 0.0 | 6.0 | 0.00 | 0.00 | 0.00 | 26 | 1012.3 |
| 20260507010101 | 56 | 107 | 1.0 | 6.0 | 0.00 | 0.00 | 0.00 | 26 | 1012.3 |
| 20260507005547 | 56 | 114 | 2.0 | 7.0 | 0.00 | 0.00 | 0.00 | 27 | 1012.3 |
| 20260507005045 | 56 | 109 | 2.0 | 7.0 | 0.00 | 0.00 | 0.00 | 27 | 1012.3 |
| 20260507004550 | 56 | 155 | 4.0 | 7.0 | 0.00 | 0.00 | 0.00 | 27 | 1012.4 |
| 20260507004045 | 56 | 131 | 1.0 | 7.0 | 0.00 | 0.00 | 0.00 | 27 | 1012.5 |
| 20260507003548 | 56 | 116 | 4.0 | 7.0 | 0.00 | 0.00 | 0.00 | 27 | 1012.6 |
| 20260507003050 | 56 | 167 | 1.0 | 5.0 | 0.00 | 0.00 | 0.00 | 27 | 1012.7 |
| 20260507002548 | 56 | 109 | 2.0 | 6.0 | 0.00 | 0.00 | 0.00 | 26 | 1012.8 |
| 20260507002047 | 56 | 139 | 0.0 | 8.0 | 0.00 | 0.00 | 0.00 | 26 | 1012.9 |
| 20260507001556 | 56 | 87 | 3.0 | 8.0 | 0.00 | 0.00 | 0.00 | 26 | 1013.0 |
| 20260507001046 | 56 | 136 | 2.0 | 8.0 | 0.00 | 0.00 | 0.00 | 25 | 1013.1 |
| 20260507000549 | 56 | 167 | 4.0 | 8.0 | 0.00 | 0.00 | 0.00 | 26 | 1013.1 |
| 20260507000051 | 56 | 111 | 4.0 | 8.0 | 0.00 | 0.00 | 0.00 | 25 | 1013.3 |
| 20260506235547 | 57 | 133 | 0.0 | 8.0 | 0.00 | 0.00 | 0.00 | 27 | 1013.3 |
| 20260506235047 | 57 | 131 | 3.0 | 9.0 | 0.00 | 0.00 | 0.00 | 25 | 1013.4 |
| 20260506234553 | 57 | 171 | 2.0 | 9.0 | 0.00 | 0.00 | 0.00 | 25 | 1013.5 |
| 20260506234044 | 57 | 78 | 3.0 | 10.0 | 0.00 | 0.00 | 0.00 | 25 | 1013.5 |
| 20260506233547 | 58 | 184 | 3.0 | 10.0 | 0.00 | 0.00 | 0.00 | 25 | 1013.6 |
| 20260506233049 | 58 | 110 | 5.0 | 10.0 | 0.00 | 0.00 | 0.00 | 25 | 1013.6 |
| 20260506232544 | 57 | 0 | 2.0 | 7.0 | 0.00 | 0.00 | 0.00 | 25 | 1013.6 |
| 20260506232048 | 58 | 214 | 3.0 | 11.0 | 0.00 | 0.00 | 0.00 | 26 | 1013.6 |
| 20260506231606 | 57 | 194 | 6.0 | 11.0 | 0.00 | 0.00 | 0.00 | 26 | 1013.6 |
| 20260506231048 | 57 | 235 | 5.0 | 11.0 | 0.00 | 0.00 | 0.00 | 25 | 1013.7 |
| 20260506230543 | 57 | 186 | 4.0 | 12.0 | 0.00 | 0.00 | 0.00 | 25 | 1013.7 |
| 20260506230109 | 57 | 269 | 7.0 | 14.0 | 0.00 | 0.00 | 0.00 | 25 | 1013.8 |
| 20260506225548 | 58 | 252 | 7.0 | 14.0 | 0.00 | 0.00 | 0.00 | 25 | 1013.8 |
| 20260506225047 | 58 | 229 | 5.0 | 12.0 | 0.00 | 0.00 | 0.00 | 24 | 1013.9 |
| 20260506224550 | 58 | 234 | 2.0 | 11.0 | 0.00 | 0.00 | 0.00 | 25 | 1013.8 |
| 20260506224046 | 58 | 267 | 3.0 | 14.0 | 0.00 | 0.00 | 0.00 | 26 | 1013.9 |
| 20260506223550 | 58 | 153 | 2.0 | 14.0 | 0.00 | 0.00 | 0.00 | 25 | 1014.0 |
| 20260506223056 | 58 | 192 | 8.0 | 14.0 | 0.00 | 0.00 | 0.00 | 25 | 1014.1 |
| 20260506222547 | 57 | 218 | 9.0 | 14.0 | 0.00 | 0.00 | 0.00 | 25 | 1014.2 |
| 20260506222055 | 57 | 234 | 6.0 | 14.0 | 0.00 | 0.00 | 0.00 | 26 | 1014.3 |
| 20260506221610 | 57 | 236 | 9.0 | 14.0 | 0.00 | 0.00 | 0.00 | 26 | 1014.3 |
| 20260506221048 | 57 | 267 | 5.0 | 12.0 | 0.00 | 0.00 | 0.00 | 27 | 1014.3 |
| 20260506220546 | 56 | 334 | 5.0 | 13.0 | 0.00 | 0.00 | 0.00 | 27 | 1014.4 |
| 20260506220105 | 56 | 288 | 6.0 | 13.0 | 0.00 | 0.00 | 0.00 | 28 | 1014.5 |
| 20260506215548 | 55 | 309 | 10.0 | 13.0 | 0.00 | 0.00 | 0.00 | 27 | 1014.6 |
| 20260506215048 | 56 | 284 | 4.0 | 11.0 | 0.00 | 0.00 | 0.00 | 27 | 1014.7 |
| 20260506214555 | 55 | 61 | 3.0 | 11.0 | 0.00 | 0.00 | 0.00 | 28 | 1014.7 |
| 20260506214048 | 55 | 102 | 2.0 | 12.0 | 0.00 | 0.00 | 0.00 | 28 | 1014.9 |
| 20260506213547 | 54 | 276 | 4.0 | 12.0 | 0.00 | 0.00 | 0.00 | 28 | 1015.0 |
| 20260506213109 | 54 | 294 | 7.0 | 12.0 | 0.00 | 0.00 | 0.00 | 27 | 1015.1 |
| 20260506212548 | 55 | 260 | 7.0 | 12.0 | 0.00 | 0.00 | 0.00 | 28 | 1015.2 |
| 20260506212048 | 56 | 279 | 8.0 | 13.0 | 0.00 | 0.00 | 0.00 | 27 | 1015.2 |
| 20260506211555 | 55 | 286 | 8.0 | 16.0 | 0.00 | 0.00 | 0.00 | 28 | 1015.3 |
| 20260506211044 | 55 | 310 | 8.0 | 16.0 | 0.00 | 0.00 | 0.00 | 27 | 1015.3 |
| 20260506210548 | 56 | 303 | 8.0 | 13.0 | 0.00 | 0.00 | 0.00 | 27 | 1015.5 |
| 20260506210100 | 55 | 241 | 6.0 | 14.0 | 0.00 | 0.00 | 0.00 | 28 | 1015.6 |
| 20260506205547 | 55 | 247 | 4.0 | 18.0 | 0.00 | 0.00 | 0.00 | 28 | 1015.6 |
| 20260506205049 | 55 | 229 | 10.0 | 18.0 | 0.00 | 0.00 | 0.00 | 28 | 1015.7 |
| 20260506204605 | 55 | 248 | 8.0 | 13.0 | 0.00 | 0.00 | 0.00 | 28 | 1015.8 |
| 20260506204048 | 53 | 298 | 5.0 | 10.0 | 0.00 | 0.00 | 0.00 | 28 | 1015.9 |
| 20260506203548 | 54 | 321 | 7.0 | 14.0 | 0.00 | 0.00 | 0.00 | 28 | 1016.0 |
| 20260506203054 | 55 | 252 | 8.0 | 14.0 | 0.00 | 0.00 | 0.00 | 28 | 1016.1 |
| 20260506202548 | 55 | 298 | 3.0 | 22.0 | 0.00 | 0.00 | 0.00 | 28 | 1016.1 |
| 20260506202045 | 55 | 229 | 5.0 | 22.0 | 0.00 | 0.00 | 0.00 | 28 | 1016.3 |
| 20260506201553 | 55 | 273 | 8.0 | 22.0 | 0.00 | 0.00 | 0.00 | 28 | 1016.4 |
| 20260506201048 | 54 | 62 | 9.0 | 16.0 | 0.00 | 0.00 | 0.00 | 29 | 1016.4 |
| 20260506200546 | 54 | 355 | 2.0 | 12.0 | 0.00 | 0.00 | 0.00 | 29 | 1016.5 |
| 20260506200053 | 54 | 269 | 7.0 | 15.0 | 0.00 | 0.00 | 0.00 | 29 | 1016.7 |
| 20260506195552 | 53 | 325 | 8.0 | 15.0 | 0.00 | 0.00 | 0.00 | 28 | 1016.7 |
| 20260506195047 | 54 | 321 | 8.0 | 15.0 | 0.00 | 0.00 | 0.00 | 28 | 1016.7 |
| 20260506194557 | 53 | 355 | 5.0 | 11.0 | 0.00 | 0.00 | 0.00 | 30 | 1016.8 |
| 20260506194048 | 53 | 76 | 1.0 | 15.0 | 0.00 | 0.00 | 0.00 | 29 | 1016.8 |
| 20260506193547 | 53 | 54 | 6.0 | 15.0 | 0.00 | 0.00 | 0.00 | 30 | 1017.0 |
| 20260506193054 | 53 | 288 | 8.0 | 17.0 | 0.00 | 0.00 | 0.00 | 29 | 1017.0 |
| 20260506192548 | 53 | 317 | 9.0 | 17.0 | 0.00 | 0.00 | 0.00 | 29 | 1017.2 |
| 20260506192048 | 52 | 259 | 4.0 | 16.0 | 0.00 | 0.00 | 0.00 | 30 | 1017.1 |
| 20260506191604 | 52 | 296 | 10.0 | 16.0 | 0.00 | 0.00 | 0.00 | 30 | 1017.2 |
| 20260506191048 | 52 | 311 | 5.0 | 13.0 | 0.00 | 0.00 | 0.00 | 30 | 1017.3 |
| 20260506190547 | 53 | 301 | 4.0 | 9.0 | 0.00 | 0.00 | 0.00 | 31 | 1017.2 |
| 20260506190050 | 52 | 348 | 2.0 | 20.0 | 0.00 | 0.00 | 0.00 | 29 | 1017.4 |
| 20260506185547 | 52 | 279 | 9.0 | 20.0 | 0.00 | 0.00 | 0.00 | 32 | 1017.5 |
| 20260506185046 | 52 | 311 | 12.0 | 19.0 | 0.00 | 0.00 | 0.00 | 30 | 1017.6 |
| 20260506184622 | 52 | 292 | 11.0 | 17.0 | 0.00 | 0.00 | 0.00 | 31 | 1017.8 |
| 20260506184044 | 52 | 262 | 5.0 | 17.0 | 0.00 | 0.00 | 0.00 | 30 | 1017.8 |
| 20260506183551 | 52 | 280 | 9.0 | 16.0 | 0.00 | 0.00 | 0.00 | 30 | 1017.8 |
| 20260506183049 | 52 | 336 | 4.0 | 11.0 | 0.00 | 0.00 | 0.00 | 31 | 1017.8 |
| 20260506182544 | 51 | 324 | 4.0 | 11.0 | 0.00 | 0.00 | 0.00 | 32 | 1018.0 |
| 20260506182051 | 51 | 285 | 6.0 | 18.0 | 0.00 | 0.00 | 0.00 | 32 | 1018.1 |
| 20260506181549 | 50 | 303 | 11.0 | 18.0 | 0.00 | 0.00 | 0.00 | 31 | 1018.3 |
| 20260506181048 | 50 | 304 | 5.0 | 18.0 | 0.00 | 0.00 | 0.00 | 32 | 1018.3 |
| 20260506180548 | 50 | 331 | 4.0 | 18.0 | 0.00 | 0.00 | 0.00 | 32 | 1018.3 |
| 20260506180053 | 50 | 337 | 8.0 | 18.0 | 0.00 | 0.00 | 0.00 | 32 | 1018.5 |
| 20260506175547 | 50 | 57 | 4.0 | 19.0 | 0.00 | 0.00 | 0.00 | 33 | 1018.6 |
| 20260506175050 | 50 | 281 | 12.0 | 19.0 | 0.00 | 0.00 | 0.00 | 31 | 1018.6 |
| 20260506174549 | 50 | 281 | 4.0 | 16.0 | 0.00 | 0.00 | 0.00 | 32 | 1018.5 |
| 20260506174047 | 50 | 272 | 8.0 | 16.0 | 0.00 | 0.00 | 0.00 | 31 | 1018.7 |
| 20260506173547 | 50 | 271 | 8.0 | 16.0 | 0.00 | 0.00 | 0.00 | 31 | 1018.9 |
| 20260506173053 | 49 | 304 | 9.0 | 14.0 | 0.00 | 0.00 | 0.00 | 32 | 1018.9 |
| 20260506172544 | 49 | 285 | 4.0 | 17.0 | 0.00 | 0.00 | 0.00 | 33 | 1018.9 |
| 20260506172048 | 49 | 329 | 5.0 | 18.0 | 0.00 | 0.00 | 0.00 | 32 | 1018.9 |
| 20260506171603 | 48 | 266 | 9.0 | 33.0 | 0.00 | 0.00 | 0.00 | 32 | 1019.0 |
| 20260506171044 | 49 | 333 | 12.0 | 33.0 | 0.00 | 0.00 | 0.00 | 32 | 1019.1 |
| 20260506170548 | 49 | 300 | 7.0 | 18.0 | 0.00 | 0.00 | 0.00 | 34 | 1019.1 |
| 20260506170057 | 48 | 115 | 4.0 | 18.0 | 0.00 | 0.00 | 0.00 | 33 | 1019.1 |
| 20260506165548 | 48 | 360 | 12.0 | 19.0 | 0.00 | 0.00 | 0.00 | 33 | 1019.3 |
| 20260506165048 | 48 | 298 | 13.0 | 19.0 | 0.00 | 0.00 | 0.00 | 33 | 1019.3 |
| 20260506164551 | 49 | 324 | 6.0 | 10.0 | 0.00 | 0.00 | 0.00 | 35 | 1019.3 |
| 20260506164048 | 47 | 291 | 2.0 | 18.0 | 0.00 | 0.00 | 0.00 | 35 | 1019.4 |
| 20260506163546 | 47 | 317 | 10.0 | 18.0 | 0.00 | 0.00 | 0.00 | 36 | 1019.6 |
| 20260506163056 | 47 | 302 | 6.0 | 18.0 | 0.00 | 0.00 | 0.00 | 36 | 1019.5 |
| 20260506162548 | 47 | 279 | 12.0 | 18.0 | 0.00 | 0.00 | 0.00 | 35 | 1019.6 |
| 20260506162044 | 47 | 68 | 8.0 | 18.0 | 0.00 | 0.00 | 0.00 | 34 | 1019.6 |
| 20260506161553 | 47 | 289 | 10.0 | 19.0 | 0.00 | 0.00 | 0.00 | 35 | 1019.7 |
| 20260506161050 | 47 | 342 | 5.0 | 19.0 | 0.00 | 0.00 | 0.00 | 36 | 1019.6 |
| 20260506160549 | 46 | 340 | 8.0 | 19.0 | 0.00 | 0.00 | 0.00 | 35 | 1019.6 |
| 20260506160107 | 46 | 297 | 9.0 | 16.0 | 0.00 | 0.00 | 0.00 | 35 | 1019.7 |
| 20260506155548 | 46 | 325 | 11.0 | 16.0 | 0.00 | 0.00 | 0.00 | 35 | 1019.8 |
| 20260506155047 | 46 | 355 | 9.0 | 17.0 | 0.00 | 0.00 | 0.00 | 38 | 1019.8 |
| 20260506154554 | 46 | 323 | 11.0 | 17.0 | 0.00 | 0.00 | 0.00 | 36 | 1019.8 |
| 20260506154051 | 47 | 319 | 10.0 | 18.0 | 0.00 | 0.00 | 0.00 | 36 | 1019.8 |
| 20260506153546 | 46 | 302 | 11.0 | 18.0 | 0.00 | 0.00 | 0.00 | 38 | 1019.9 |
| 20260506153055 | 46 | 352 | 9.0 | 15.0 | 0.00 | 0.00 | 0.00 | 39 | 1019.9 |
| 20260506152548 | 45 | 318 | 10.0 | 15.0 | 0.00 | 0.00 | 0.00 | 39 | 1020.0 |
| 20260506152047 | 45 | 352 | 10.0 | 15.0 | 0.00 | 0.00 | 0.00 | 37 | 1020.0 |
| 20260506151557 | 45 | 312 | 6.0 | 15.0 | 0.00 | 0.00 | 0.00 | 39 | 1020.0 |
| 20260506151047 | 45 | 331 | 9.0 | 15.0 | 0.00 | 0.00 | 0.00 | 39 | 1020.1 |
| 20260506150544 | 44 | 325 | 8.0 | 13.0 | 0.00 | 0.00 | 0.00 | 40 | 1019.9 |
| 20260506150055 | 44 | 335 | 6.0 | 12.0 | 0.00 | 0.00 | 0.00 | 40 | 1020.0 |
| 20260506145548 | 44 | 296 | 5.0 | 12.0 | 0.00 | 0.00 | 0.00 | 40 | 1020.0 |
| 20260506145049 | 44 | 317 | 6.0 | 12.0 | 0.00 | 0.00 | 0.00 | 42 | 1020.0 |
| 20260506144601 | 44 | 330 | 8.0 | 13.0 | 0.00 | 0.00 | 0.00 | 41 | 1020.0 |
| 20260506144044 | 44 | 294 | 8.0 | 13.0 | 0.00 | 0.00 | 0.00 | 42 | 1020.1 |
| 20260506143548 | 43 | 327 | 7.0 | 13.0 | 0.00 | 0.00 | 0.00 | 42 | 1020.0 |
| 20260506143055 | 43 | 321 | 9.0 | 13.0 | 0.00 | 0.00 | 0.00 | 43 | 1020.1 |
| 20260506142547 | 43 | 323 | 9.0 | 13.0 | 0.00 | 0.00 | 0.00 | 43 | 1020.0 |
| 20260506142047 | 43 | 302 | 7.0 | 11.0 | 0.00 | 0.00 | 0.00 | 44 | 1020.1 |
| 20260506141559 | 42 | 308 | 5.0 | 10.0 | 0.00 | 0.00 | 0.00 | 45 | 1020.2 |
| 20260506141047 | 41 | 360 | 0.0 | 6.0 | 0.00 | 0.00 | 0.00 | 50 | 1020.2 |
| 20260506140547 | 40 | 360 | 3.0 | 7.0 | 0.00 | 0.00 | 0.00 | 52 | 1020.3 |
| 20260506140055 | 39 | 360 | 4.0 | 8.0 | 0.00 | 0.00 | 0.00 | 54 | 1020.4 |
| 20260506135546 | 38 | 161 | 4.0 | 9.0 | 0.00 | 0.00 | 0.00 | 56 | 1020.4 |
| 20260506135046 | 36 | 360 | 4.0 | 9.0 | 0.00 | 0.00 | 0.00 | 58 | 1020.4 |
| 20260506134601 | 36 | 360 | 6.0 | 9.0 | 0.00 | 0.00 | 0.00 | 59 | 1020.4 |
| 20260506134048 | 35 | 360 | 5.0 | 9.0 | 0.00 | 0.00 | 0.00 | 60 | 1020.4 |
| 20260506133547 | 34 | 173 | 5.0 | 9.0 | 0.00 | 0.00 | 0.00 | 61 | 1020.4 |
| 20260506133100 | 34 | 191 | 5.0 | 9.0 | 0.00 | 0.00 | 0.00 | 61 | 1020.4 |
| 20260506132552 | 33 | 174 | 4.0 | 7.0 | 0.00 | 0.00 | 0.00 | 63 | 1020.4 |
| 20260506132052 | 33 | 360 | 4.0 | 7.0 | 0.00 | 0.00 | 0.00 | 64 | 1020.4 |
| 20260506131607 | 32 | 360 | 3.0 | 7.0 | 0.00 | 0.00 | 0.00 | 65 | 1020.4 |
| 20260506131048 | 31 | 168 | 3.0 | 6.0 | 0.00 | 0.00 | 0.00 | 65 | 1020.4 |
| 20260506130548 | 31 | 181 | 3.0 | 6.0 | 0.00 | 0.00 | 0.00 | 68 | 1020.4 |
| 20260506130056 | 30 | 181 | 3.0 | 7.0 | 0.00 | 0.00 | 0.00 | 69 | 1020.4 |
| 20260506125546 | 29 | 194 | 4.0 | 7.0 | 0.00 | 0.00 | 0.00 | 69 | 1020.4 |
| 20260506125047 | 29 | 192 | 4.0 | 6.0 | 0.00 | 0.00 | 0.00 | 70 | 1020.4 |
| 20260506124550 | 28 | 197 | 3.0 | 6.0 | 0.00 | 0.00 | 0.00 | 72 | 1020.3 |
| 20260506124048 | 28 | 360 | 3.0 | 5.0 | 0.00 | 0.00 | 0.00 | 73 | 1020.4 |
| 20260506123547 | 27 | 201 | 2.0 | 5.0 | 0.00 | 0.00 | 0.00 | 73 | 1020.4 |
| 20260506123054 | 26 | 0 | 0.0 | 3.0 | 0.00 | 0.00 | 0.00 | 73 | 1020.3 |
| 20260506122547 | 26 | 129 | 1.0 | 5.0 | 0.00 | 0.00 | 0.00 | 74 | 1020.3 |
| 20260506122048 | 26 | 132 | 3.0 | 5.0 | 0.00 | 0.00 | 0.00 | 74 | 1020.3 |
| 20260506121559 | 25 | 116 | 1.0 | 4.0 | 0.00 | 0.00 | 0.00 | 74 | 1020.2 |
| 20260506121050 | 25 | 140 | 0.0 | 5.0 | 0.00 | 0.00 | 0.00 | 75 | 1020.1 |
| 20260506120548 | 25 | 117 | 1.0 | 5.0 | 0.00 | 0.00 | 0.00 | 75 | 1019.9 |
| 20260506115548 | 24 | 169 | 2.0 | 5.0 | 0.00 | 0.00 | 0.00 | 75 | 1019.9 |
| 20260506115046 | 24 | 0 | 2.0 | 5.0 | 0.00 | 0.00 | 0.00 | 74 | 1019.8 |
| 20260506114555 | 25 | 144 | 0.0 | 5.0 | 0.00 | 0.00 | 0.00 | 73 | 1019.8 |